Regional Weather Roundup
Issued by NWS

Home | Current Version | Previous Version | Text Only | Print | Product List | Glossary On
Versions: 1 2 3 4 5 6 7 8 9 10 11 12 13 14 15 16 17 18 19 20 21 22 23 24 25 26 27 28 29 30 31 32 33 34 35 36 37 38 39 40 41 42 43 44 45 46 47 48 49 50
000
ASUS43 KTOP 231959
RWRKS

WEATHER ROUNDUP FOR KANSAS
NATIONAL WEATHER SERVICE GOODLAND KS
300 PM CDT MON APR 23 2018

NOTE:  "FAIR" INDICATES FEW OR NO CLOUDS BELOW 12,000 FEET WITH NO
SIGNIFICANT WEATHER AND/OR OBSTRUCTIONS TO VISIBILITY.

KSZ001>006-013>018-027>032-041>047-232100-
NORTHWEST KANSAS

CITY           SKY/WX    TMP DP  RH WIND       PRES   REMARKS
GOODLAND       FAIR      66  39  37 S16G26    30.08F
HAYS           MOSUNNY   68  39  34 SE7       30.10F
HILL CITY      MOSUNNY   70  42  36 E7G16     30.11F
RUSSELL        SUNNY     69  42  37 MISG      30.09F
$$

KSZ061>065-074>080-084>089-232100-
SOUTHWEST KANSAS

CITY           SKY/WX    TMP DP  RH WIND       PRES   REMARKS
DODGE CITY     MOSUNNY   68  40  35 S6        30.10F
GARDEN CITY    MOSUNNY   67  39  35 S10G20    30.10F
GREAT BEND     SUNNY     68  43  40 NE5       30.11F
LIBERAL        SUNNY     67  40  37 S9G17     30.11F
$$

KSZ066>073-081>083-090>101-232100-
SOUTHEAST KANSAS

CITY           SKY/WX    TMP DP  RH WIND       PRES   REMARKS
CHANUTE        CLOUDY    70  47  43 N8        30.04F
COFFEYVILLE    SUNNY     73  49  42 N10       30.03F
HUTCHINSON     MOSUNNY   71  43  36 E7        30.08F
MEDICINE LODGE   N/A     69  43  38 VRB5      30.08F
PARSONS        MOSUNNY   73  49  42 N9        30.04F
WICHITA INTL   SUNNY     73  42  32 N9        30.07F
WICHITA JABRA  SUNNY     71  41  33 VRB7      30.07F
WICHITA MCCONL SUNNY     71  39  32 N9        30.07F
WINFIELD       SUNNY     71  48  43 MISG      30.07F
$$

KSZ007>012-019>026-033>040-048>060-102>105-232100-
NORTHEAST KANSAS

CITY           SKY/WX    TMP DP  RH WIND       PRES   REMARKS
CONCORDIA      SUNNY     72  32  23 NE8       30.09F
EMPORIA        SUNNY     71  41  33 E10       30.06F
LAWRENCE       SUNNY     76  33  21 NE12G18   30.05F
MANHATTAN      MOSUNNY   73  33  23 NE9       30.07F
OLATHE IND     SUNNY     75  35  23 NE17G23   30.05F
OLATHE EXE     SUNNY     74  35  24 N8G16     30.04F
SALINA         SUNNY     74  36  25 VRB5      30.09F
TOPEKA BILLARD SUNNY     75  36  24 NE9G17    30.05F
TOPEKA FORBES  SUNNY     76  35  22 NE14      30.05F
$$




USA.gov is the U.S. government's official web portal to all federal, state and local government web resources and services.